[[{"header":{"parameterUnit":"m.s-1","parameterCategory":1,"la1":30.2991,"la2":30.254,"lo1":-89.0895,"lo2":-89.0444,"dy":0.0017,"dx":0.0017,"nx":28,"ny":28,"refTime":"2024-06-28T09:00:00:Z","depth":0,"parameterNumber":2,"parameterNumberName":"U-component_of_WINDS"},"data":[0,0,0,0,0,0,0,0,0,0,0,0,0,0,0,0,0,0,0,0,0,0,0,0,0,0,0,0,0,0,0,0,0,0,0,0,0,0,0,0,0,0,0,0,0,0,0,0,0,0,0,0,0,0,0,0,0,0,5.3954,5.3956,0,5.4102,5.4104,5.4105,5.4045,5.4041,5.4038,5.4034,5.4186,5.4193,5.42,0,0,0,0,0,0,0,0,0,0,0,0,0,5.3617,5.3623,5.3954,5.3956,5.3958,5.4102,5.4104,5.4106,5.4045,5.4041,5.4037,5.4033,5.4183,5.4192,5.4201,0,0,0,0,0,0,0,0,0,0,0,0,0,5.3764,5.3626,5.3954,5.3945,5.3946,5.4101,5.4104,5.4106,5.4046,5.4041,5.4036,5.4031,5.418,5.4191,5.4202,5.4375,0,0,5.4235,5.424,0,0,0,0,0,0,0,0,5.3756,5.3776,5.3944,5.3946,5.3947,5.405,5.404,5.4196,5.4048,5.4008,5.4034,5.4028,5.4145,5.4158,5.4197,5.4382,5.4388,5.4236,5.4243,5.4248,5.4251,0,0,0,0,0,0,0,5.3746,5.377,5.4012,5.3947,5.3948,5.3933,5.3948,5.407,5.4104,5.4011,5.4007,5.4025,5.4144,5.4187,5.4201,5.439,5.4236,5.4246,5.4252,5.4257,5.472,5.4726,0,0,0,0,0,0,5.3735,5.3762,5.4008,5.4017,5.3836,5.3943,5.396,5.4022,5.4103,5.411,5.403,5.4022,5.4171,5.4188,5.4206,5.441,5.4247,5.4258,5.4264,5.4714,5.4721,5.4728,0,0,0,0,0,0,5.3728,5.3758,5.4002,5.3888,5.3918,5.3955,5.4025,5.4028,5.407,5.4117,5.4122,5.4067,5.4167,5.419,5.4332,5.4415,5.4263,5.4273,5.4708,5.4717,5.4724,5.4823,0,0,0,0,0,0,5.3719,5.3756,5.3822,5.389,5.3924,5.4127,5.403,5.4034,5.4089,5.4081,5.4153,5.416,5.4165,5.4316,5.4343,5.4427,5.4281,5.47,5.4712,5.4722,5.4812,5.4834,5.4852,0,0,0,0,0,5.3707,5.3845,5.3826,5.3856,5.4009,5.4132,5.4151,5.4154,5.4096,5.4163,5.4192,5.4158,5.4402,5.4331,5.4361,5.4449,5.4695,5.4708,5.4721,5.4803,5.4829,5.4851,0,0,0,0,0,0,5.3786,5.3854,5.3834,5.3998,5.4059,5.4121,5.4205,5.4182,5.4262,5.425,5.425,5.4267,5.4413,5.4446,5.4366,5.4619,5.454,5.4559,5.4592,5.4617,5.4637,5.4625,5.429,0,0,0,0,0,5.3823,5.3918,5.3972,5.4111,5.4143,5.4169,5.4223,5.422,5.4283,5.4309,5.4349,5.4412,5.4502,5.4562,5.4648,5.4817,5.4831,5.4893,5.4913,5.4929,5.4945,5.5033,5.506,5.477,5.477,5.477,0,0,5.3899,5.3948,5.4008,5.4128,5.4175,5.4272,5.4192,5.4298,5.437,5.4325,5.4461,5.4493,5.4563,5.4718,5.4789,5.475,5.5028,5.4945,5.4958,5.4965,5.5049,5.5077,5.5101,5.4779,5.4777,5.4776,0,0,5.4087,5.4135,5.4255,5.4304,5.4376,5.4392,5.4421,5.4487,5.4505,5.4642,5.4609,5.4694,5.4851,5.4901,5.4947,5.5153,5.5123,5.5181,5.5284,5.537,5.5393,5.5413,5.5483,5.5508,5.5197,5.5198,5.5198,0,5.4173,5.4318,5.4319,5.4428,5.448,5.4445,5.4564,5.4612,5.4709,5.4746,5.4701,5.4895,5.494,5.5105,5.5155,5.5195,5.5225,5.5172,5.539,5.541,5.5429,5.5495,5.5522,5.5204,5.5203,5.5203,5.5202,0,5.4418,5.4519,5.4607,5.4701,5.4764,5.4878,5.4894,5.4958,5.4949,5.4969,5.5107,5.516,5.5254,5.5294,5.5287,5.5457,5.543,5.5389,5.5308,5.5463,5.5525,5.5551,5.5213,5.5211,5.5209,5.5207,0,0,5.466,5.4751,5.4783,5.4824,5.4901,5.4978,5.509,5.5182,5.5235,5.5303,5.5395,5.5527,5.5488,5.554,5.5538,5.5615,5.5769,5.5562,5.5564,5.5596,5.5957,5.5986,5.6015,5.5751,5.5756,5.576,5.5949,0,5.4851,5.5047,5.505,5.5229,5.532,5.5287,5.5383,5.544,5.5462,5.5543,5.5567,5.5659,5.5602,5.5633,5.5707,5.5735,5.5841,5.5722,5.5834,5.5838,5.5815,5.6049,5.608,5.6257,5.5974,5.5979,5.5982,0,5.5101,5.5175,5.5363,5.5423,5.5462,5.5549,5.5632,5.571,5.5773,5.5783,5.5841,5.5827,5.5939,5.5857,5.601,5.5928,5.5975,5.5995,5.6002,5.601,5.5917,5.606,5.6313,5.6338,5.6021,5.6018,5.6015,0,5.5254,5.5402,5.5532,5.5568,5.5644,5.5705,5.5739,5.5797,5.5851,5.5924,5.5958,5.6044,5.609,5.6155,5.6164,5.6104,5.6317,5.6236,5.6326,5.6326,5.6371,5.6367,5.6631,5.6406,5.6406,5.6405,5.6404,0,5.5466,5.5581,5.5601,5.5681,5.5809,5.5811,5.5937,5.5966,5.6017,5.6101,5.6079,5.6157,5.6166,5.6247,5.6255,5.6378,5.64,5.641,5.641,5.6411,5.6409,5.6439,5.6426,5.6412,5.6411,5.6409,5.6408,0,5.5658,5.5677,5.5816,5.5875,5.5892,5.5983,5.6033,5.6109,5.6128,5.6234,5.6259,5.6289,5.6383,5.6399,5.6511,5.6516,5.6662,5.6652,5.6641,5.6638,5.6726,5.6716,5.7017,5.7055,5.6807,5.681,5.6812,0,5.579,5.5878,5.5946,5.6,5.6037,5.6125,5.6179,5.6185,5.6243,5.6319,5.6385,5.6477,5.655,5.6702,5.6733,5.6817,5.6807,5.6906,5.6819,5.6815,5.6804,5.6797,5.6804,5.6922,5.6925,5.6927,5.6929,0,5.6022,5.6026,5.6106,5.6189,5.6254,5.632,5.6382,5.6427,5.644,5.6506,5.6602,5.6659,5.6771,5.6861,5.6945,5.6978,5.6955,5.6956,5.6981,5.698,5.6969,5.6973,5.6683,5.6948,5.6946,5.6945,5.6944,5.6943,5.6186,5.6261,5.632,5.6408,5.6455,5.6513,5.6586,5.6613,5.6693,5.6784,5.6783,5.6887,5.6945,5.7055,5.7094,5.7175,5.7142,5.7179,5.7188,5.7196,5.7203,5.6958,5.719,5.719,5.7189,5.7189,5.7188,0,5.6414,5.6449,5.6531,5.6617,5.6687,5.6659,5.6726,5.6785,5.6877,5.6933,5.7005,5.7113,5.72,5.7238,5.7323,5.738,5.7371,5.7402,5.7396,5.7404,5.7229,5.7197,5.7407,5.7407,5.7407,5.7407,5.7407,5.7407,5.654,5.6664,5.6675,5.6822,5.6856,5.6958,5.6997,5.705,5.7094,5.7216,5.7288,5.7312,5.736,5.7448,5.7526,5.7535,5.7565,5.76,5.7604,5.7439,5.7417,5.7395,5.7365,5.7608,5.7608,5.7772,5.7774,5.7775]},{"header":{"parameterUnit":"m.s-1","parameterCategory":1,"la1":30.2991,"la2":30.254,"lo1":-89.0895,"lo2":-89.0444,"dy":0.0017,"dx":0.0017,"nx":28,"ny":28,"refTime":"2024-06-28T09:00:00:Z","depth":0,"parameterNumber":3,"parameterNumberName":"V-component_of_WINDS"},"data":[0,0,0,0,0,0,0,0,0,0,0,0,0,0,0,0,0,0,0,0,0,0,0,0,0,0,0,0,0,0,0,0,0,0,0,0,0,0,0,0,0,0,0,0,0,0,0,0,0,0,0,0,0,0,0,0,0,0,2.3187,2.3188,0,2.3294,2.3296,2.3297,2.3352,2.3352,2.3352,2.3352,2.3459,2.3462,2.3465,0,0,0,0,0,0,0,0,0,0,0,0,0,2.3025,2.3028,2.3187,2.3188,2.319,2.3294,2.3296,2.3297,2.3352,2.3352,2.3352,2.3352,2.3458,2.3461,2.3465,0,0,0,0,0,0,0,0,0,0,0,0,0,2.311,2.3029,2.3187,2.3229,2.3234,2.3294,2.3296,2.3298,2.3352,2.3352,2.3352,2.3352,2.3457,2.3461,2.3465,2.349,0,0,2.3478,2.348,0,0,0,0,0,0,0,0,2.3105,2.3116,2.3222,2.3227,2.3232,2.331,2.3278,2.3362,2.3352,2.3307,2.3352,2.3352,2.3409,2.3417,2.3437,2.3495,2.3499,2.3478,2.3481,2.3483,2.3484,0,0,0,0,0,0,0,2.3099,2.3112,2.3229,2.3223,2.323,2.3242,2.3254,2.3294,2.3356,2.3311,2.3315,2.3327,2.3412,2.3433,2.344,2.3501,2.3478,2.3482,2.3485,2.3486,2.3582,2.3582,0,0,0,0,0,0,2.3087,2.3106,2.3226,2.3233,2.3168,2.3245,2.3258,2.3285,2.3356,2.3367,2.3327,2.3329,2.3426,2.3435,2.3444,2.3477,2.3483,2.3487,2.3489,2.3582,2.3582,2.3582,0,0,0,0,0,0,2.3083,2.3097,2.3222,2.3171,2.3188,2.3248,2.3277,2.3287,2.3308,2.3368,2.3379,2.3337,2.3426,2.3438,2.3478,2.3481,2.3489,2.3492,2.3582,2.3582,2.3582,2.3542,0,0,0,0,0,0,2.3078,2.3095,2.3106,2.3171,2.319,2.3255,2.3277,2.3289,2.3315,2.3319,2.3381,2.3391,2.3427,2.3471,2.3482,2.3487,2.3496,2.3582,2.3582,2.3582,2.3544,2.3541,2.3539,0,0,0,0,0,2.3072,2.3091,2.3107,2.3121,2.3205,2.3255,2.3266,2.3308,2.3315,2.3326,2.3365,2.3389,2.3479,2.3475,2.3487,2.3494,2.3582,2.3582,2.3582,2.3545,2.3541,2.3539,0,0,0,0,0,0,2.3025,2.31,2.3119,2.3158,2.32,2.3264,2.3279,2.3303,2.3343,2.3345,2.3394,2.3408,2.3442,2.3472,2.3466,2.352,2.3533,2.3535,2.35,2.3497,2.3495,2.3487,2.3499,0,0,0,0,0,2.3019,2.3054,2.3118,2.3146,2.3166,2.3219,2.3242,2.3271,2.3315,2.3333,2.3374,2.3416,2.3453,2.3477,2.3515,2.3548,2.3561,2.3558,2.3556,2.3553,2.3555,2.3573,2.3572,2.3582,2.3582,2.3582,0,0,2.3008,2.3053,2.3072,2.3138,2.3174,2.3207,2.3233,2.3269,2.3294,2.3338,2.3378,2.3409,2.3459,2.3495,2.3513,2.3521,2.3555,2.3553,2.3551,2.3554,2.3573,2.3572,2.3571,2.3582,2.3582,2.3582,0,0,2.3004,2.3042,2.307,2.3105,2.3158,2.3193,2.3199,2.3259,2.3282,2.3323,2.3357,2.3386,2.345,2.3484,2.3509,2.3516,2.3539,2.3526,2.3514,2.3531,2.353,2.353,2.3531,2.3531,2.3528,2.3528,2.3528,0,2.2983,2.3037,2.3081,2.3114,2.3141,2.3183,2.3211,2.3242,2.3304,2.3322,2.333,2.341,2.3446,2.349,2.3491,2.351,2.3518,2.352,2.3527,2.3527,2.3527,2.3529,2.353,2.3526,2.3526,2.3526,2.3526,0,2.3007,2.3044,2.3059,2.3119,2.3148,2.3178,2.3226,2.3249,2.3275,2.3308,2.3348,2.3393,2.344,2.3452,2.3477,2.3499,2.3502,2.3518,2.3531,2.3523,2.3526,2.3527,2.3523,2.3524,2.3524,2.3525,0,0,2.2979,2.3061,2.3066,2.3093,2.3154,2.3182,2.3213,2.326,2.3279,2.332,2.3346,2.3398,2.3413,2.3441,2.347,2.3485,2.3486,2.3499,2.3501,2.3495,2.3512,2.3499,2.35,2.3502,2.3502,2.3502,2.3507,0,2.2983,2.3042,2.3082,2.3125,2.3158,2.3197,2.3223,2.3263,2.3294,2.3325,2.3359,2.3395,2.3412,2.3429,2.3446,2.3483,2.349,2.3483,2.3526,2.3527,2.3513,2.3501,2.3489,2.3492,2.3509,2.3509,2.3509,0,2.2998,2.3038,2.3083,2.3139,2.3154,2.3178,2.3223,2.3253,2.3297,2.3319,2.335,2.3379,2.3412,2.3422,2.3467,2.3461,2.348,2.3501,2.3502,2.3507,2.3518,2.3506,2.3494,2.3494,2.3511,2.3511,2.3511,0,2.2971,2.3036,2.3072,2.3094,2.316,2.3175,2.3203,2.3248,2.3273,2.3311,2.3328,2.3369,2.3392,2.3423,2.3462,2.3465,2.3502,2.3516,2.352,2.3519,2.3526,2.3525,2.3516,2.3539,2.3539,2.3539,2.3539,0,2.2973,2.2999,2.3061,2.3083,2.3113,2.3157,2.3185,2.3216,2.3255,2.3283,2.3318,2.3343,2.3393,2.3424,2.3454,2.3486,2.3496,2.3513,2.3521,2.351,2.3508,2.3524,2.3525,2.3539,2.3539,2.3539,2.3539,0,2.2949,2.2992,2.3033,2.3092,2.3107,2.3126,2.3176,2.3198,2.323,2.3264,2.3274,2.3325,2.3362,2.3404,2.3455,2.3476,2.3505,2.3517,2.3491,2.3495,2.3497,2.3496,2.3498,2.35,2.3521,2.352,2.352,0,2.2948,2.2969,2.3029,2.305,2.3077,2.3111,2.3136,2.318,2.3205,2.3256,2.3271,2.3311,2.3346,2.3403,2.3444,2.3483,2.3495,2.3493,2.3501,2.3489,2.3494,2.3493,2.3494,2.349,2.349,2.349,2.3489,0,2.294,2.2959,2.2995,2.3037,2.3066,2.3101,2.3138,2.3153,2.3203,2.3229,2.3268,2.3294,2.3346,2.3385,2.3429,2.3456,2.3481,2.3486,2.3489,2.3478,2.3462,2.347,2.3484,2.3486,2.3487,2.3487,2.3487,2.3487,2.2927,2.2947,2.2993,2.303,2.3062,2.3095,2.3118,2.3152,2.3186,2.3232,2.3255,2.3293,2.3335,2.3396,2.3423,2.3452,2.346,2.3465,2.3466,2.3466,2.3463,2.3457,2.346,2.3461,2.3461,2.3461,2.3461,0,2.2921,2.2952,2.2986,2.3035,2.3064,2.3085,2.3126,2.3148,2.3182,2.3219,2.3252,2.3295,2.3333,2.3375,2.3415,2.343,2.3443,2.3439,2.3439,2.3444,2.3454,2.3447,2.3429,2.3429,2.3429,2.3429,2.3429,2.3429,2.2921,2.2956,2.298,2.303,2.306,2.3098,2.3119,2.3149,2.3179,2.3226,2.3257,2.3285,2.3324,2.3366,2.3401,2.3412,2.3425,2.3418,2.3433,2.3441,2.3444,2.3446,2.344,2.3421,2.3421,2.3421,2.3421,2.3421]}]]